This demonstration page uses our WeatherBlox Daily Observations layout. Learn more.

Left ArrowRight Arrow

30.21309, -93.2044

Hourly Observations for May 5, 2022

Temp ( °F °C ) Dew Point ( °F °C ) Humidity (%) Winds ( mph kmh ) Pressure ( in mb ) Visibility ( mi km ) Precip ( " mm )
12:15 am 00:15 Clear 71 21.7 69 20.5 93 93 SSE 7 11 29.94 1014 7 11 0.00 0.00
12:35 am 00:35 Clear 71 21.6 69 20.5 93 93 S 5 7 29.94 1014 7 11 0.00 0.00
12:55 am 00:55 Mostly Cloudy 73 22.5 70 21 91 91 Calm 29.96 1015 10 16 0.00 0.00
1:15 am 01:15 Cloudy 72 22.3 70 20.9 92 92 Calm 29.96 1015 10 16 0.00 0.00
1:35 am 01:35 Mostly Cloudy 73 22.5 70 21 91 91 Calm 29.96 1015 10 16 0.00 0.00
1:55 am 01:55 Mostly Cloudy 73 22.5 70 21 91 91 Calm 29.96 1015 10 16 0.00 0.00
2:15 am 02:15 Mostly Cloudy 72 22.1 69 20.8 92 92 E 3 6 29.96 1015 7 11 0.00 0.00
2:35 am 02:35 Partly Cloudy 71 21.5 69 20.3 93 93 ESE 5 7 29.95 1014 7 11 0.00 0.00
2:55 am 02:55 Clear with Mist and Fog 70 21.3 68 20.2 93 93 Calm 29.95 1014 5 8 0.00 0.00
3:15 am 03:15 Clear 71 21.7 69 20.7 94 94 Calm 29.96 1015 7 11 0.00 0.00
3:35 am 03:35 Partly Cloudy with Mist and Fog 71 21.8 69 20.8 94 94 Calm 29.96 1015 7 11 0.00 0.00
3:55 am 03:55 Partly Cloudy with Mist and Fog 70 21.1 69 20.3 95 95 SSE 3 6 29.95 1014 2 3 0.00 0.00
4:15 am 04:15 Cloudy with Mist and Fog 69 20.6 68 19.8 95 95 ESE 6 9 29.94 1014 1 1 0.00 0.00
4:35 am 04:35 Partly Cloudy with Mist and Fog 70 21.1 69 20.3 95 95 ESE 7 11 29.93 1014 4 6 0.00 0.00
4:55 am 04:55 Partly Cloudy with Mist and Fog 71 21.5 69 20.7 95 95 ESE 6 9 29.93 1014 5 8 0.00 0.00
5:15 am 05:15 Partly Cloudy with Mist and Fog 71 21.6 69 20.7 95 95 SE 6 9 29.92 1013 5 8 0.00 0.00
5:35 am 05:35 Clear with Mist and Fog 72 22 70 21.1 95 95 SE 8 13 29.92 1013 5 8 0.00 0.00
6:00 am 06:00 Mostly Clear 72 22 70 21 94 94 SSE 12 19 29.92 1013 10 16 0.00 0.00
6:55 am 06:55 Partly Cloudy 73 23 72 22 94 94 SSE 12 19 29.90 1013 10 16 0.00 0.00
7:50 am 07:50 Partly Cloudy 75 24 72 22 89 89 SSE 12 19 29.91 1013 7 11 0.00 0.00
8:47 am 08:47 Mostly Cloudy 79 26 72 22 79 79 SSE 13 20 29.95 1014 7 11 0.00 0.00
9:45 am 09:45 Mostly Cloudy 81 27 72 22 74 74 S 14 22 29.97 1015 10 16 0.00 0.00
10:55 am 10:55 Mostly Cloudy 81 27 72 22 74 74 S 14 22 29.95 1014 10 16 0.00 0.00
11:45 am 11:45 Mostly Cloudy 81 27 72 22 74 74 S 14 22 29.96 1015 10 16 0.00 0.00
12:55 pm 12:55 Cloudy 84 29 72 22 66 66 S 22 35 29.88 1012 10 16 0.00 0.00
1:55 pm 13:55 Mostly Cloudy 84 29 70 21 62 62 S 25 41 29.88 1012 10 16 0.00 0.00
2:45 pm 14:45 Mostly Cloudy 84 29 72 22 66 66 S 16 26 29.89 1012 10 16 0.00 0.00
3:47 pm 15:47 Mostly Cloudy 84 29 72 22.1 66 66 S 21 33 29.85 1011 10 16 0.00 0.00
4:45 pm 16:45 Mostly Cloudy 84 29 72 22 66 66 SSW 18 30 29.86 1011 10 16 0.00 0.00
5:55 pm 17:55 Mostly Cloudy 84 29 72 22 66 66 S 10 17 29.87 1011 10 16 0.00 0.00
6:45 pm 18:45 Mostly Cloudy 81 27 73 23 79 79 S 12 19 29.88 1012 10 16 0.00 0.00
7:45 pm 19:45 Mostly Cloudy 81 27 73 23 79 79 Calm 29.89 1012 10 16 0.00 0.00
8:55 pm 20:55 Mostly Clear 77 25 73 23 89 89 Calm 29.90 1013 10 16 0.00 0.00
9:45 pm 21:45 Cloudy with Rain 72 22 64 18 78 78 NNW 23 37 29.96 1015 10 16 0.00 0.00
10:15 pm 22:15 Cloudy 67 19.7 63 17.4 87 87 NNW 17 28 29.95 1014 10 16 0.01 0.25
10:35 pm 22:35 Cloudy with Light Rain 67 19.6 63 17.4 87 87 NNW 8 13 29.96 1015 10 16 0.02 0.51
10:55 pm 22:55 Cloudy with Nearby Thunderstorms 67 19.4 63 17.2 87 87 N 3 6 29.95 1014 7 11 0.08 2.03
11:15 pm 23:15 Cloudy with Thunderstorms 66 19.1 64 17.5 91 91 SE 7 11 29.93 1014 10 16 0.01 0.25
11:35 pm 23:35 Mostly Cloudy with Thunderstorms 67 19.2 64 17.8 92 92 SSE 5 7 29.93 1014 10 16 0.02 0.51
11:55 pm 23:55 Partly Cloudy with Mist and Fog 66 19 64 17.8 93 93 E 3 6 29.89 1012 5 8 0.05 1.27

Powered by AerisWeather